• In Uzbekistan
  • List of Countries
  • For 7 days
  • Water Temperature
  • Satellite Maps
  • Weather Map
  • Weather Widgets
  • user-avatar
    Login

    Hourly Weather Havana

    Today, 24 September, Monday

    Time Temperature Precipitation Wind Pressure Humidity
    00:00 +27°C° 0 mm 4 mps 759 mmHg 89%
    01:00 +26°C° 0 mm 4 mps 759 mmHg 89%
    02:00 +26°C° 0 mm 4 mps 759 mmHg 89%
    03:00 +26°C° 0 mm 4 mps 759 mmHg 89%
    04:00 +25°C° 0 mm 3 mps 759 mmHg 90%
    05:00 +26°C° 0 mm 3 mps 759 mmHg 90%
    06:00 +26°C° 0 mm 3 mps 759 mmHg 90%
    07:00 +26°C° 0 mm 3 mps 760 mmHg 91%
    08:00 +28°C° 0 mm 3 mps 760 mmHg 84%
    09:00 +29°C° 0 mm 3 mps 760 mmHg 77%
    10:00 +31°C° 0 mm 3 mps 761 mmHg 69%
    11:00 +33°C° 0 mm 3 mps 760 mmHg 65%
    12:00 +34°C° 0 mm 3 mps 760 mmHg 60%
    13:00 +35°C° 0 mm 2 mps 760 mmHg 55%
    14:00 +35°C° 0.1 mm 3 mps 759 mmHg 58%
    15:00 +34°C° 0.1 mm 3 mps 759 mmHg 60%
    16:00 +34°C° 0.1 mm 4 mps 759 mmHg 62%
    17:00 +33°C° 0.3 mm 4 mps 759 mmHg 70%
    18:00 +30°C° 0.3 mm 4 mps 759 mmHg 78%
    19:00 +28°C° 0.3 mm 4 mps 759 mmHg 85%
    20:00 +28°C° 0 mm 3 mps 760 mmHg 86%
    21:00 +28°C° 0 mm 3 mps 760 mmHg 87%
    22:00 +27°C° 0 mm 3 mps 761 mmHg 88%
    23:00 +27°C° 0 mm 3 mps 761 mmHg 89%

    Tomorrow, 25 September, Tuesday

    Time Temperature Precipitation Wind Pressure Humidity
    00:00 +27°C° 0 mm 3 mps 760 mmHg 90%
    01:00 +27°C° 0 mm 3 mps 760 mmHg 91%
    02:00 +27°C° 0 mm 4 mps 760 mmHg 91%
    03:00 +26°C° 0 mm 4 mps 760 mmHg 90%
    04:00 +26°C° 0 mm 4 mps 760 mmHg 90%
    05:00 +26°C° 0 mm 4 mps 760 mmHg 89%
    06:00 +26°C° 0 mm 4 mps 760 mmHg 89%
    07:00 +26°C° 0 mm 4 mps 760 mmHg 89%
    08:00 +28°C° 0 mm 4 mps 761 mmHg 82%
    09:00 +30°C° 0 mm 4 mps 761 mmHg 75%
    10:00 +33°C° 0 mm 4 mps 762 mmHg 68%
    11:00 +34°C° 0 mm 4 mps 761 mmHg 64%
    12:00 +35°C° 0 mm 4 mps 761 mmHg 60%
    13:00 +36°C° 0 mm 3 mps 761 mmHg 56%
    14:00 +35°C° 0.2 mm 4 mps 760 mmHg 59%
    15:00 +35°C° 0.2 mm 4 mps 760 mmHg 62%
    16:00 +34°C° 0.2 mm 5 mps 759 mmHg 66%
    17:00 +33°C° 0.6 mm 5 mps 759 mmHg 72%
    18:00 +30°C° 0.6 mm 5 mps 760 mmHg 79%
    19:00 +29°C° 0.6 mm 5 mps 760 mmHg 85%
    20:00 +29°C° 0.3 mm 5 mps 761 mmHg 86%
    21:00 +28°C° 0.3 mm 5 mps 761 mmHg 87%
    22:00 +28°C° 0.3 mm 5 mps 762 mmHg 88%
    23:00 +28°C° 0.3 mm 5 mps 761 mmHg 89%

    Day after tomorrow, 26 September, Wednesday

    Time Temperature Precipitation Wind Pressure Humidity
    00:00 +28°C° 0.3 mm 5 mps 761 mmHg 90%
    01:00 +28°C° 0.3 mm 5 mps 761 mmHg 90%
    02:00 +28°C° 0.1 mm 5 mps 760 mmHg 91%
    03:00 +27°C° 0.1 mm 5 mps 760 mmHg 92%
    04:00 +27°C° 0.1 mm 5 mps 760 mmHg 92%
    05:00 +27°C° 0.2 mm 5 mps 760 mmHg 92%
    06:00 +27°C° 0.2 mm 5 mps 760 mmHg 92%
    07:00 +27°C° 0.2 mm 5 mps 760 mmHg 92%
    08:00 +29°C° 0 mm 5 mps 761 mmHg 85%
    09:00 +30°C° 0 mm 5 mps 761 mmHg 79%
    10:00 +33°C° 0 mm 5 mps 761 mmHg 72%
    11:00 +34°C° 0 mm 5 mps 761 mmHg 69%
    12:00 +35°C° 0 mm 5 mps 761 mmHg 65%
    13:00 +36°C° 0 mm 4 mps 760 mmHg 61%
    14:00 +35°C° 1 mm 5 mps 760 mmHg 66%
    15:00 +34°C° 1 mm 5 mps 759 mmHg 70%
    16:00 +33°C° 1 mm 5 mps 758 mmHg 75%
    17:00 +32°C° 1.5 mm 5 mps 759 mmHg 78%
    18:00 +30°C° 1.5 mm 5 mps 759 mmHg 82%
    19:00 +29°C° 1.5 mm 5 mps 759 mmHg 85%
    20:00 +29°C° 1.1 mm 5 mps 760 mmHg 86%
    21:00 +28°C° 1.1 mm 5 mps 760 mmHg 87%
    22:00 +28°C° 1.1 mm 5 mps 761 mmHg 88%
    23:00 +28°C° 0.5 mm 5 mps 760 mmHg 89%

    27 September, Thursday

    Time Temperature Precipitation Wind Pressure Humidity
    00:00 +28°C° 0.5 mm 5 mps 760 mmHg 90%
    01:00 +28°C° 0.5 mm 4 mps 760 mmHg 91%
    02:00 +27°C° 0 mm 5 mps 759 mmHg 91%
    03:00 +27°C° 0 mm 5 mps 759 mmHg 91%
    04:00 +27°C° 0 mm 5 mps 759 mmHg 92%
    05:00 +27°C° 0 mm 5 mps 759 mmHg 92%
    06:00 +27°C° 0 mm 5 mps 759 mmHg 91%
    07:00 +27°C° 0 mm 5 mps 760 mmHg 91%
    08:00 +28°C° 0 mm 5 mps 760 mmHg 85%
    09:00 +30°C° 0 mm 5 mps 760 mmHg 78%
    10:00 +33°C° 0 mm 5 mps 761 mmHg 71%
    11:00 +34°C° 0 mm 5 mps 760 mmHg 67%
    12:00 +35°C° 0 mm 5 mps 760 mmHg 63%
    13:00 +36°C° 0 mm 4 mps 760 mmHg 59%
    14:00 +35°C° 0.8 mm 4 mps 759 mmHg 63%
    15:00 +34°C° 0.8 mm 5 mps 759 mmHg 67%
    16:00 +33°C° 0.8 mm 5 mps 758 mmHg 71%
    17:00 +32°C° 0.5 mm 5 mps 759 mmHg 76%
    18:00 +30°C° 0.5 mm 4 mps 759 mmHg 81%
    19:00 +29°C° 0.5 mm 4 mps 759 mmHg 85%
    20:00 +28°C° 0 mm 4 mps 760 mmHg 87%
    21:00 +28°C° 0 mm 4 mps 760 mmHg 88%
    22:00 +28°C° 0 mm 4 mps 761 mmHg 89%
    23:00 +28°C° 0.5 mm 4 mps 761 mmHg 90%

    28 September, Friday

    Time Temperature Precipitation Wind Pressure Humidity
    00:00 +27°C° 0.5 mm 4 mps 760 mmHg 90%
    01:00 +27°C° 0.5 mm 4 mps 760 mmHg 90%
    02:00 +27°C° 0.2 mm 4 mps 760 mmHg 91%
    03:00 +27°C° 0.2 mm 4 mps 760 mmHg 92%
    04:00 +26°C° 0.2 mm 4 mps 760 mmHg 93%
    05:00 +26°C° 0 mm 4 mps 760 mmHg 92%
    06:00 +26°C° 0 mm 4 mps 760 mmHg 91%
    07:00 +26°C° 0 mm 4 mps 761 mmHg 90%
    08:00 +28°C° 0 mm 5 mps 761 mmHg 84%
    09:00 +30°C° 0 mm 5 mps 761 mmHg 77%
    10:00 +33°C° 0 mm 5 mps 761 mmHg 71%
    11:00 +34°C° 0.1 mm 5 mps 761 mmHg 68%
    12:00 +34°C° 0.1 mm 5 mps 761 mmHg 65%
    13:00 +35°C° 0.1 mm 5 mps 760 mmHg 62%
    14:00 +35°C° 0 mm 5 mps 760 mmHg 63%
    15:00 +35°C° 0 mm 5 mps 759 mmHg 64%
    16:00 +35°C° 0 mm 5 mps 759 mmHg 65%
    17:00 +33°C° 0.9 mm 6 mps 759 mmHg 71%
    18:00 +32°C° 0.9 mm 6 mps 760 mmHg 77%
    19:00 +29°C° 0.9 mm 6 mps 760 mmHg 83%
    20:00 +29°C° 0.4 mm 6 mps 760 mmHg 84%
    21:00 +29°C° 0.4 mm 6 mps 761 mmHg 86%
    22:00 +29°C° 0.4 mm 6 mps 761 mmHg 87%
    23:00 +28°C° 0.3 mm 6 mps 761 mmHg 87%

    29 September, Saturday

    Time Temperature Precipitation Wind Pressure Humidity
    00:00 +28°C° 0.3 mm 6 mps 761 mmHg 88%
    01:00 +27°C° 0.3 mm 6 mps 761 mmHg 88%
    02:00 +27°C° 0 mm 5 mps 760 mmHg 88%
    03:00 +27°C° 0 mm 5 mps 760 mmHg 89%
    04:00 +27°C° 0 mm 5 mps 760 mmHg 89%
    05:00 +27°C° 0 mm 5 mps 761 mmHg 89%
    06:00 +27°C° 0 mm 5 mps 761 mmHg 90%
    07:00 +27°C° 0 mm 4 mps 761 mmHg 90%
    08:00 +29°C° 0 mm 5 mps 761 mmHg 84%
    09:00 +30°C° 0 mm 5 mps 761 mmHg 78%
    10:00 +33°C° 0 mm 5 mps 762 mmHg 71%
    11:00 +34°C° 0.1 mm 6 mps 761 mmHg 68%
    12:00 +34°C° 0.1 mm 6 mps 761 mmHg 65%
    13:00 +35°C° 0.1 mm 6 mps 760 mmHg 62%
    14:00 +35°C° 0.1 mm 6 mps 760 mmHg 65%
    15:00 +34°C° 0.1 mm 6 mps 759 mmHg 68%
    16:00 +34°C° 0.1 mm 6 mps 759 mmHg 70%
    17:00 +32°C° 1.2 mm 6 mps 759 mmHg 76%
    18:00 +30°C° 1.2 mm 6 mps 760 mmHg 81%
    19:00 +29°C° 1.2 mm 6 mps 760 mmHg 87%
    20:00 +28°C° 0.8 mm 6 mps 760 mmHg 87%
    21:00 +28°C° 0.8 mm 5 mps 760 mmHg 88%
    22:00 +28°C° 0.8 mm 5 mps 761 mmHg 89%
    23:00 +28°C° 0.8 mm 5 mps 760 mmHg 89%
    Show more